Regional Weather Roundup
Issued by NWS

Home | Current Version | Previous Version | Text Only | Print | Product List | Glossary On
Versions: 1 2 3 4 5 6 7 8 9 10 11 12 13 14 15 16 17 18 19 20 21 22 23 24 25 26 27 28 29 30 31 32 33 34 35 36 37 38 39 40 41 42 43 44 45 46 47 48 49 50
000
ASUS42 KTBW 232210
RWRFL
FLORIDA REGIONAL WEATHER ROUNDUP
NATIONAL WEATHER SERVICE TAMPA BAY RUSKIN FL
500 PM EST SUN NOV 23 2014

NOTE: "FAIR" INDICATES FEW OR NO CLOUDS BELOW 12,000 FEET WITH NO
SIGNIFICANT WEATHER AND/OR OBSTRUCTIONS TO VISIBILITY.


FLZ001>010-012>015-112-114-115-232300-
PANHANDLE FLORIDA

CITY           SKY/WX    TMP DP  RH WIND       PRES   REMARKS
PENSACOLA      CLEAR     66  62  87 SW13      29.72R
PENSACOLA NAS  PTCLDY    68  63  84 SW10      29.72R
MILTON NAS     MOCLDY    66  62  87 S13G21    29.72R
CRESTVIEW      CLOUDY    65  64  97 S12G20    29.75R
DUKE FIELD     FAIR      66  64  91 SW16G23   29.74R
VALPARAISO     PTCLDY    67  65  91 SW15      29.75R FOG
MARY ESTHER    MOCLDY    68  63  84 SW14      29.73R
TRI COUNTY     TSTM      63  62  97 MISG      29.78R FOG
PANAMA CITY    TSTM      64  62  93 S6        29.78S VSB 1
TYNDALL AFB    RAIN      64  64 100 W5        29.80S FOG
APALACHICOLA   HVY RAIN  68  64  87 NW6       29.81S FOG

STATION/POSITION SKY/WX   TEMP    WIND        PRES    WAVE   SWELL
                          AIR SEA DIR/SP/G            HT/PER HT/PER
                          (F)     (DEG/KT/KT) (MB)    (FT/S) (FT/S)
30.1N   87.6W              70 68  220/ 16/ 19 1005.8R   8/ 7   3/ 8
29.2N   88.2W              72 72  210/ 21/ 23 1007.3R   9/ 7
28.7N   86.0W              72 76  280/  8/ 10 1009.0F   7/ 8   7/ 8
PANAMA CITY BEAC           65 65  220/  8/ 12 1008.2F
CAPE SAN BLAS    NOT AVBL
TOWER C                    65     290/  7/  8 1010.4R
28.5N   84.5W              74 71  180/ 14/ 16 1009.8R   6/ 7   3/ 7

$$
FLZ011-016>038-118-127-128-134-139-239-232300-
NORTH FLORIDA

CITY           SKY/WX    TMP DP  RH WIND       PRES   REMARKS
MARIANNA       LGT RAIN  64  64 100 S9        29.77F
TALLAHASSEE    TSTM      66  64  92 NW3       29.85R
PERRY          CLOUDY    73  71  94 S14G29    29.84S
CROSS CITY       N/A     76  71  85 S17G28    29.85R
LAKE CITY      CLOUDY    77  70  78 SW18G33   29.85S
GAINESVILLE    MOCLDY    77  72  84 S6        29.86R
MAYPORT NAS    CLOUDY    71  68  90 SE9       29.85S
JACKSONVILLE   CLOUDY    76  72  87 S9        29.84R
JAX NAS        CLOUDY    78  69  73 S8        29.85S
JAX CRAIG      CLOUDY    76  70  82 SE5       29.84F
JAX CECIL      RAIN      75  72  88 S8        29.85S VSB 1
FERNANDINA BEA FAIR      73  70  88 SE15      29.83F
ST AUGUSTINE   CLOUDY    74  69  85 SE8       29.87S

STATION/POSITION SKY/WX   TEMP    WIND        PRES    WAVE   SWELL
                          AIR SEA DIR/SP/G            HT/PER HT/PER
                          (F)     (DEG/KT/KT) (MB)    (FT/S) (FT/S)
SHELL POINT                64     170/ 14/ 17   N/A
KEATON BEACH               66     160/ 16/ 19 1010.6R
CEDAR KEY                  68     200/ 17/ 19 1011.8R
FERNANDINA                 70 61  150/  7/ 12 1009.9F
30.7N   81.3W                 60                N/A     6/ 8
MAYPORT                    72 63  160/  5/  8   N/A
31.4N   80.9W              68 64  160/ 10/ 12 1011.3F   6/ 8   5/ 8
ST AUGUSTINE               67     180/ 11/ 11 1011.9F

$$
FLZ040-043>046-052-053-057-058-063-144-232300-
INTERIOR CENTRAL FLORIDA

CITY           SKY/WX    TMP DP  RH WIND       PRES   REMARKS
OCALA          PTCLDY    81  70  69 SW8       29.87R
THE VILLAGES     N/A     79  72  78 SW8       29.78S
LEESBURG       PTCLDY    81  68  64 SW12      29.88R
SANFORD        MOCLDY    82  69  64 S10       29.88R
ORLANDO EXEC   MOCLDY    82  71  69 S8        29.89R
ORLANDO INTL   MOCLDY    81  71  71 S9        29.89R
KISSIMMEE      MOCLDY    81  73  78 S7        29.89R
WINTER HAVEN   MOCLDY    82  70  66 SW9       29.90R
LAKELAND       MOCLDY    81  70  69 SW14      29.90R
BARTOW         MOCLDY    81  70  69 S9        29.90R
OKEECHOBEE     CLEAR    N/A N/A N/A SE10      29.92R

$$
FLZ041-047-054-059-064-141-147-232300-
EAST CENTRAL FLORIDA

CITY           SKY/WX    TMP DP  RH WIND       PRES   REMARKS
ORMOND BEACH   PTCLDY    81  68  65 S9        29.88R
DAYTONA BEACH  MOCLDY    82  70  66 S8        29.88S
DELAND         MOCLDY    81  70  69 S8        29.89S
NEW SMYRNA BEA MOCLDY    81  72  74 S9        29.89R
JFK SPACE CTR  CLEAR     77  71  82 S13       29.90R
TITUSVILLE     MOCLDY    75  72  88 SE12      29.90S
CAPE CANAVERAL CLEAR     76  72  86 S15       29.89S
PATRICK AFB    CLEAR     75  72  90 S18       29.90S
MELBOURNE      PTCLDY    80  73  79 SE10      29.90S
VERO BEACH     CLOUDY    77  72  84 SE14      29.92R
FT PIERCE      MOCLDY    80  73  79 SE10      29.92R
STUART         MOCLDY    79  72  78 S15G23    29.93R

STATION/POSITION SKY/WX   TEMP    WIND        PRES    WAVE   SWELL
                          AIR SEA DIR/SP/G            HT/PER HT/PER
                          (F)     (DEG/KT/KT) (MB)    (FT/S) (FT/S)
28.5N   80.2W              78 76  170/ 17/ 21 1012.8R
28.9N   78.5W              79 78  150/ 19/ 23 1014.1S   9/10   5/10
TRIDENT PIER               74 69  150/  9/ 15 1012.0F
28.4N   80.5W                 69                N/A     5/ 9   2/11
27.6N   80.2W                 72                N/A     5/ 9   2/11

$$
FLZ050-056-061-142-242-148-248-149-249-151-251-155-255-
160-260-232300-
WEST CENTRAL FLORIDA

CITY           SKY/WX    TMP DP  RH WIND       PRES   REMARKS
CRYSTAL RIVER  FAIR      77  68  73 SW5       29.88R
INVERNESS      FAIR      81  68  65 S7        29.88S
BROOKSVILLE    PTCLDY    80  70  71 S17G24    29.90R
ZEPHYRHILLS    MOCLDY    81  68  65 SW8       29.90R
CLEARWATER     PTCLDY    79  72  79 S17G28    29.89S
TAMPA INTL     MOCLDY    76  69  79 S14       29.90R
TAMPA EXEC     PTCLDY    82  70  65 SW13G18   29.90R
PLANT CITY     CLEAR     82  70  65 S12       29.91S
MACDILL AFB    CLEAR     75  71  89 SW14      29.90R
PETER O KNIGHT CLEAR     79  70  73 SW10      29.90R
ST PETERSBURG  CLEAR     77  71  82 SW15      29.88R
SARASOTA       PTCLDY    78  72  81 S15G24    29.88R
VENICE         FAIR      75  72  88 S16G22    29.90S

STATION/POSITION SKY/WX   TEMP    WIND        PRES    WAVE   SWELL
                          AIR SEA DIR/SP/G            HT/PER HT/PER
                          (F)     (DEG/KT/KT) (MB)    (FT/S) (FT/S)
CEDAR KEY                  68     200/ 17/ 19 1011.8R
28.5N   84.5W              74 71  180/ 14/ 16 1009.8R   6/ 7   3/ 7
27.3N   84.3W                 78                N/A     6/ 7
CLEARWATER BEACH           75 64  170/ 15/ 18 1011.7S
MIDDLE TAMPA BAY           75     210/ 16/ 19 1012.4R
VENICE                     72 69  150/ 13/ 15 1012.1R

$$
FLZ066-069-070-075>078-162-262-165-265-232300-
SOUTHWEST FLORIDA AND KEYS

CITY           SKY/WX    TMP DP  RH WIND       PRES   REMARKS
PUNTA GORDA    CLEAR     82  71  69 S15       29.91S
FT MYERS       CLOUDY    82  71  69 S8        29.89R
SOUTHWEST INTL CLOUDY    82  71  69 S10       29.90R
NAPLES         MOCLDY    80  73  79 SE12      29.90R
MARCO ISLAND   CLOUDY    79  73  83 S9        29.91R
MARATHON       MOCLDY    81  77  88 SE3       29.90R
KEY WEST NAS   PTCLDY    79  75  87 SE9       29.89R
KEY WEST INTL  PTCLDY    81  81 100 SE8       29.89S

STATION/POSITION SKY/WX   TEMP    WIND        PRES    WAVE   SWELL
                          AIR SEA DIR/SP/G            HT/PER HT/PER
                          (F)     (DEG/KT/KT) (MB)    (FT/S) (FT/S)
VENICE                     72 69  150/ 13/ 15 1012.1R
NAPLES                     79 75  160/  9/ 14 1013.2R
26.0N   85.6W              80 80  200/ 16/ 17 1010.2R   6/ 6   3/ 8
DRY TORTUGAS               78     140/ 10/ 11 1011.7R
NW FL BAY                  77     140/  7/  8 1012.8F
SAND KEY                   79     130/ 12/ 13 1012.0R
SOMBRERO KEY               80     140/ 16/ 17 1013.0R
LONG KEY                   80 77  160/ 12/ 13 1013.1F
MOLASSES REEF              80 78  140/ 15/ 17 1012.9R

$$
FLZ067-068-071>074-168-172>174-232300-
SOUTHEAST FLORIDA

CITY           SKY/WX    TMP DP  RH WIND       PRES   REMARKS
W PALM BEACH   MOCLDY    81  74  79 SE13G22   29.92R
FT LAUDER-EXEC PTCLDY    79  73  82 SE10      29.92S
FT LAUDERDALE  PTCLDY    81  73  76 SE13      29.91F
POMPANO BEACH  PTCLDY    81  74  79 SE12      29.92F
PEMBROKE PINES PTCLDY    80  73  79 SE13      29.93S
OPA LOCKA      MOCLDY    81  73  76 S13       29.92F
MIAMI          PTCLDY    80  74  81 SE10G17   29.92F
WEST KENDALL   PTCLDY    80  74  81 SE13      29.92S
HOMESTEAD      PTCLDY    79  75  89 SE7       29.92S

STATION/POSITION SKY/WX   TEMP    WIND        PRES    WAVE   SWELL
                          AIR SEA DIR/SP/G            HT/PER HT/PER
                          (F)     (DEG/KT/KT) (MB)    (FT/S) (FT/S)
PORT EVERGLADES            79     150/  9/ 12 1013.2
VIRGINIA KEY               79 75  150/  9/ 12 1013.9R


USA.gov is the U.S. government's official web portal to all federal, state and local government web resources and services.